• In France
  • List of Countries
  • For 7 days
  • Water Temperature
  • Satellite Maps
  • Weather Map
  • Weather Widgets
  • user-avatar
    Login

    Hourly Weather Shaki

    Today, 23 October, Tuesday

    Time Temperature Precipitation Wind Pressure Humidity
    00:00 +17°C° 0 mm 2 mps 736 mmHg 54%
    01:00 +17°C° 0 mm 3 mps 736 mmHg 52%
    02:00 +17°C° 0 mm 3 mps 736 mmHg 50%
    03:00 +17°C° 0 mm 3 mps 735 mmHg 52%
    04:00 +17°C° 0 mm 2 mps 735 mmHg 51%
    05:00 +16°C° 0 mm 2 mps 735 mmHg 50%
    06:00 +16°C° 0 mm 2 mps 736 mmHg 50%
    07:00 +18°C° 0 mm 2 mps 736 mmHg 45%
    08:00 +20°C° 0 mm 2 mps 736 mmHg 41%
    09:00 +21°C° 0 mm 3 mps 736 mmHg 37%
    10:00 +22°C° 0 mm 3 mps 736 mmHg 35%
    11:00 +24°C° 0 mm 3 mps 735 mmHg 33%
    12:00 +25°C° 0 mm 3 mps 735 mmHg 32%
    13:00 +25°C° 0 mm 3 mps 735 mmHg 31%
    14:00 +25°C° 0 mm 3 mps 735 mmHg 31%
    15:00 +25°C° 0 mm 3 mps 734 mmHg 31%
    16:00 +23°C° 0 mm 2 mps 734 mmHg 33%
    17:00 +21°C° 0 mm 2 mps 735 mmHg 35%
    18:00 +20°C° 0 mm 1 mps 735 mmHg 37%
    19:00 +20°C° 0 mm 1 mps 735 mmHg 37%
    20:00 +19°C° 0 mm 1 mps 735 mmHg 36%
    21:00 +19°C° 0 mm 1 mps 735 mmHg 35%
    22:00 +18°C° 0 mm 1 mps 735 mmHg 38%
    23:00 +18°C° 0 mm 1 mps 734 mmHg 41%

    Tomorrow, 24 October, Wednesday

    Time Temperature Precipitation Wind Pressure Humidity
    00:00 +16°C° 0 mm 1 mps 734 mmHg 43%
    01:00 +16°C° 0 mm 1 mps 734 mmHg 47%
    02:00 +16°C° 0 mm 1 mps 734 mmHg 51%
    03:00 +16°C° 0 mm 1 mps 734 mmHg 54%
    04:00 +15°C° 0 mm 1 mps 733 mmHg 55%
    05:00 +15°C° 0 mm 2 mps 733 mmHg 55%
    06:00 +15°C° 0 mm 2 mps 733 mmHg 56%
    07:00 +17°C° 0 mm 2 mps 732 mmHg 50%
    08:00 +19°C° 0 mm 2 mps 732 mmHg 44%
    09:00 +21°C° 0 mm 3 mps 732 mmHg 38%
    10:00 +22°C° 0 mm 3 mps 731 mmHg 35%
    11:00 +24°C° 0 mm 3 mps 731 mmHg 33%
    12:00 +25°C° 0 mm 3 mps 730 mmHg 30%
    13:00 +25°C° 0 mm 3 mps 730 mmHg 31%
    14:00 +25°C° 0 mm 3 mps 729 mmHg 32%
    15:00 +25°C° 0 mm 3 mps 728 mmHg 33%
    16:00 +24°C° 0 mm 3 mps 728 mmHg 37%
    17:00 +21°C° 0 mm 2 mps 728 mmHg 41%
    18:00 +20°C° 0 mm 2 mps 727 mmHg 45%
    19:00 +20°C° 0 mm 2 mps 727 mmHg 46%
    20:00 +19°C° 0 mm 2 mps 727 mmHg 46%
    21:00 +19°C° 0 mm 2 mps 727 mmHg 47%
    22:00 +19°C° 0 mm 2 mps 727 mmHg 47%
    23:00 +19°C° 0 mm 2 mps 726 mmHg 48%

    Day after tomorrow, 25 October, Thursday

    Time Temperature Precipitation Wind Pressure Humidity
    00:00 +18°C° 0 mm 2 mps 726 mmHg 48%
    01:00 +18°C° 0 mm 3 mps 725 mmHg 49%
    02:00 +18°C° 0 mm 3 mps 725 mmHg 49%
    03:00 +18°C° 0 mm 3 mps 725 mmHg 50%
    04:00 +18°C° 0 mm 3 mps 724 mmHg 51%
    05:00 +18°C° 0 mm 3 mps 724 mmHg 51%
    06:00 +18°C° 0 mm 3 mps 724 mmHg 51%
    07:00 +20°C° 0 mm 4 mps 724 mmHg 46%
    08:00 +22°C° 0 mm 4 mps 724 mmHg 40%
    09:00 +25°C° 0 mm 5 mps 724 mmHg 35%
    10:00 +26°C° 0 mm 5 mps 724 mmHg 32%
    11:00 +27°C° 0 mm 4 mps 723 mmHg 30%
    12:00 +28°C° 0 mm 4 mps 723 mmHg 28%
    13:00 +28°C° 0 mm 4 mps 722 mmHg 28%
    14:00 +28°C° 0 mm 3 mps 722 mmHg 27%
    15:00 +28°C° 0 mm 2 mps 721 mmHg 27%
    16:00 +27°C° 0 mm 2 mps 721 mmHg 30%
    17:00 +25°C° 0 mm 3 mps 721 mmHg 34%
    18:00 +24°C° 0 mm 3 mps 721 mmHg 37%
    19:00 +22°C° 0 mm 3 mps 722 mmHg 39%
    20:00 +23°C° 0 mm 2 mps 723 mmHg 40%
    21:00 +21°C° 0 mm 2 mps 723 mmHg 42%
    22:00 +20°C° 0 mm 2 mps 724 mmHg 45%
    23:00 +19°C° 0 mm 3 mps 724 mmHg 48%

    26 October, Friday

    Time Temperature Precipitation Wind Pressure Humidity
    00:00 +18°C° 0 mm 3 mps 725 mmHg 51%
    01:00 +18°C° 0 mm 4 mps 725 mmHg 51%
    02:00 +17°C° 0 mm 4 mps 726 mmHg 52%
    03:00 +17°C° 0 mm 4 mps 726 mmHg 52%
    04:00 +15°C° 0 mm 4 mps 727 mmHg 54%
    05:00 +15°C° 0 mm 4 mps 727 mmHg 55%
    06:00 +14°C° 0 mm 4 mps 727 mmHg 57%
    07:00 +14°C° 0.7 mm 4 mps 728 mmHg 60%
    08:00 +14°C° 0.7 mm 4 mps 729 mmHg 63%
    09:00 +13°C° 0.7 mm 4 mps 729 mmHg 66%
    10:00 +13°C° 1 mm 4 mps 730 mmHg 70%
    11:00 +13°C° 1 mm 4 mps 730 mmHg 73%
    12:00 +12°C° 1 mm 4 mps 730 mmHg 77%
    13:00 +12°C° 1.3 mm 4 mps 730 mmHg 76%
    14:00 +12°C° 1.3 mm 4 mps 731 mmHg 75%
    15:00 +12°C° 1.3 mm 4 mps 731 mmHg 74%
    16:00 +12°C° 0.4 mm 4 mps 731 mmHg 72%
    17:00 +12°C° 0.4 mm 4 mps 732 mmHg 70%
    18:00 +12°C° 0.4 mm 4 mps 733 mmHg 68%
    19:00 +12°C° 0.1 mm 4 mps 733 mmHg 66%
    20:00 +12°C° 0.1 mm 4 mps 733 mmHg 64%
    21:00 +12°C° 0.1 mm 4 mps 734 mmHg 62%
    22:00 +11°C° 0 mm 4 mps 734 mmHg 60%
    23:00 +10°C° 0 mm 4 mps 734 mmHg 58%

    27 October, Saturday

    Time Temperature Precipitation Wind Pressure Humidity
    00:00 +8°C° 0 mm 4 mps 735 mmHg 55%
    01:00 +8°C° 0 mm 4 mps 735 mmHg 52%
    02:00 +8°C° 0 mm 5 mps 736 mmHg 49%
    03:00 +8°C° 0 mm 5 mps 736 mmHg 46%
    04:00 +8°C° 0 mm 4 mps 737 mmHg 47%
    05:00 +8°C° 0 mm 4 mps 738 mmHg 48%
    06:00 +8°C° 0 mm 4 mps 739 mmHg 49%
    07:00 +11°C° 0 mm 4 mps 739 mmHg 48%
    08:00 +12°C° 0 mm 4 mps 740 mmHg 47%
    09:00 +14°C° 0 mm 5 mps 740 mmHg 45%
    10:00 +15°C° 0 mm 4 mps 740 mmHg 44%
    11:00 +17°C° 0 mm 4 mps 741 mmHg 42%
    12:00 +18°C° 0 mm 4 mps 741 mmHg 40%
    13:00 +18°C° 0 mm 3 mps 741 mmHg 39%
    14:00 +18°C° 0 mm 3 mps 741 mmHg 38%
    15:00 +18°C° 0 mm 2 mps 741 mmHg 37%
    16:00 +16°C° 0 mm 2 mps 742 mmHg 38%
    17:00 +15°C° 0 mm 2 mps 743 mmHg 39%
    18:00 +13°C° 0 mm 2 mps 743 mmHg 39%
    19:00 +13°C° 0 mm 2 mps 744 mmHg 40%
    20:00 +13°C° 0 mm 2 mps 744 mmHg 41%
    21:00 +12°C° 0 mm 2 mps 744 mmHg 42%
    22:00 +12°C° 0 mm 2 mps 744 mmHg 46%
    23:00 +10°C° 0 mm 2 mps 744 mmHg 50%

    28 October, Sunday

    Time Temperature Precipitation Wind Pressure Humidity
    00:00 +10°C° 0 mm 2 mps 744 mmHg 53%
    01:00 +10°C° 0 mm 2 mps 744 mmHg 55%
    02:00 +10°C° 0 mm 2 mps 744 mmHg 56%
    03:00 +10°C° 0 mm 1 mps 744 mmHg 57%
    04:00 +10°C° 0 mm 1 mps 744 mmHg 56%
    05:00 +10°C° 0 mm 1 mps 744 mmHg 55%
    06:00 +10°C° 0 mm 1 mps 744 mmHg 55%
    07:00 +12°C° 0 mm 1 mps 744 mmHg 52%
    08:00 +13°C° 0 mm 1 mps 744 mmHg 49%
    09:00 +15°C° 0 mm 1 mps 744 mmHg 47%
    10:00 +16°C° 0 mm 1 mps 744 mmHg 46%
    11:00 +16°C° 0 mm 2 mps 743 mmHg 45%
    12:00 +17°C° 0 mm 2 mps 743 mmHg 43%
    13:00 +18°C° 0 mm 2 mps 743 mmHg 43%
    14:00 +19°C° 0 mm 1 mps 742 mmHg 43%
    15:00 +19°C° 0 mm 1 mps 742 mmHg 43%
    16:00 +18°C° 0 mm 1 mps 742 mmHg 46%
    17:00 +15°C° 0 mm 1 mps 742 mmHg 48%
    18:00 +14°C° 0 mm 1 mps 742 mmHg 51%
    19:00 +14°C° 0 mm 1 mps 743 mmHg 51%
    20:00 +13°C° 0 mm 1 mps 743 mmHg 50%
    21:00 +13°C° 0 mm 1 mps 743 mmHg 50%
    22:00 +13°C° 0 mm 1 mps 743 mmHg 51%
    23:00 +13°C° 0 mm 1 mps 743 mmHg 51%

    29 October, Monday

    Time Temperature Precipitation Wind Pressure Humidity
    00:00 +12°C° 0 mm 1 mps 742 mmHg 51%
    01:00 +12°C° 0 mm 1 mps 742 mmHg 51%
    02:00 +12°C° 0 mm 1 mps 742 mmHg 51%
    03:00 +12°C° 0 mm 1 mps 742 mmHg 51%
    04:00 +12°C° 0 mm 1 mps 742 mmHg 51%
    05:00 +12°C° 0 mm 1 mps 742 mmHg 51%
    06:00 +12°C° 0 mm 1 mps 742 mmHg 51%
    07:00 +13°C° 0 mm 1 mps 742 mmHg 49%
    08:00 +15°C° 0 mm 1 mps 742 mmHg 48%
    09:00 +18°C° 0 mm 1 mps 742 mmHg 46%
    10:00 +19°C° 0 mm 1 mps 742 mmHg 44%
    11:00 +20°C° 0 mm 1 mps 742 mmHg 43%
    12:00 +21°C° 0 mm 1 mps 742 mmHg 41%
    13:00 +21°C° 0 mm 1 mps 741 mmHg 41%
    14:00 +21°C° 0 mm 1 mps 741 mmHg 40%
    15:00 +21°C° 0 mm 1 mps 741 mmHg 40%
    16:00 +20°C° 0 mm 1 mps 741 mmHg 43%
    17:00 +18°C° 0 mm 1 mps 741 mmHg 47%
    18:00 +16°C° 0 mm 1 mps 741 mmHg 50%
    19:00 +15°C° 0 mm 2 mps 741 mmHg 50%
    20:00 +15°C° 0 mm 2 mps 741 mmHg 50%
    21:00 +15°C° 0 mm 2 mps 741 mmHg 51%
    22:00 +15°C° 0 mm 2 mps 741 mmHg 51%
    23:00 +14°C° 0 mm 2 mps 741 mmHg 51%
    Show more